Regional Weather Roundup
Issued by NWS

Home | Current Version | Previous Version | Graphics & Text | Print | Product List | Glossary On
Versions: 1 2 3 4 5 6 7 8 9 10 11 12 13 14 15 16 17 18 19 20 21 22 23 24 25 26 27 28 29 30 31 32 33 34 35 36 37 38 39 40 41 42 43 44 45 46 47 48 49 50
000
ASUS43 KLMK 210410
RWRKY
KENTUCKY REGIONAL WEATHER ROUNDUP
NATIONAL WEATHER SERVICE LOUISVILLE KY
1100 PM EST MON NOV 20 2017

NOTE "FAIR" INDICATES FEW OR NO CLOUDS BELOW 12,000 FEET
WITH NO SIGNIFICANT WEATHER AND/OR OBSTRUCTIONS TO VISIBILITY.

KYZ001>023-026-027-061>063-070>075-210500-
WESTERN AND SOUTH CENTRAL KENTUCKY

CITY           SKY/WX    TMP DP  RH WIND       PRES   REMARKS
PADUCAH        CLEAR     42  23  46 SW5       30.01F
HENDERSON      CLEAR     41  26  55 S9        30.00F
OWENSBORO      CLEAR     37  26  64 S7        30.03F WCI  32
HOPKINSVILLE   CLEAR     42  22  44 S6        30.06S
BOWLING GREEN  CLEAR     33  27  78 CALM      30.08S
GLASGOW        CLEAR     35  24  66 CALM      30.08S
$$

KYZ024-025-028>034-038-045-046-053-210500-
NORTH CENTRAL KENTUCKY

CITY           SKY/WX    TMP DP  RH WIND       PRES   REMARKS
LOUISVILLE/SDF CLEAR     38  24  57 SE7       30.02F WCI  33
LOUISVILLE/LOU CLEAR     38  25  59 S8        30.03F WCI  32
FORT KNOX      CLEAR     38  23  54 S10       30.01F WCI  31
$$

KYZ035>037-039>044-047>052-055>060-089>105-210500-
NORTHEAST KENTUCKY

CITY           SKY/WX    TMP DP  RH WIND       PRES   REMARKS
LEXINGTON      CLEAR     35  24  64 S8        30.05F WCI  29
COVINGTON      CLEAR     37  26  64 S8        29.99F WCI  31
FRANKFORT      CLEAR     33  23  66 CALM      30.03F
$$

KYZ054-064>069-076>088-106>120-210500-
SOUTHEAST KENTUCKY

CITY           SKY/WX    TMP DP  RH WIND       PRES   REMARKS
JACKSON        CLEAR     40  22  48 SW5       30.07F
LONDON         CLEAR     33  24  69 CALM      30.09S
SOMERSET       CLEAR     39  25  56 S5        30.11S
MIDDLESBORO    CLOUDY    31  28  87 CALM      30.14S
MONTICELLO     CLEAR     31  25  78 W10       30.11S WCI  22
$$





USA.gov is the U.S. government's official web portal to all federal, state and local government web resources and services.